Location: Unspecified
(0.0000°N, 0.0000°E)
Time: 11:42:07
(UTC+00:00)

Vanguard 1 Rocket - All Passes

Search period start: 01 November 2014 00:00
Search period end: 11 November 2014 00:00
Orbit: 654 x 4227 km, 34.3° (Epoch: 01 November)

Date Brightness Start Highest point End Pass type
(mag) Time Alt. Az. Time Alt. Az. Time Alt. Az.
01 Nov - 00:45:39 10° NW 00:58:44 17° NNW 01:08:54 10° NNE visible
01 Nov - 03:28:01 10° NNW 03:35:03 15° N 03:40:18 10° NE visible
01 Nov - 05:56:36 10° NW 06:04:55 39° NNE 06:09:57 10° E daylight
01 Nov - 08:25:51 10° W 08:30:04 22° SW 08:33:36 10° SSE daylight
01 Nov - 15:49:59 10° SSW 16:00:06 27° SE 16:15:57 10° E daylight
01 Nov - 18:13:32 10° SW 18:30:12 77° SE 18:56:34 10° ENE visible
01 Nov - 20:42:42 10° WSW 21:04:04 51° NW 21:28:26 10° NE visible
01 Nov - 23:23:33 10° WNW 23:41:54 23° NNW 23:57:01 10° NNE visible
02 Nov - 02:11:53 10° NNW 02:20:34 15° N 02:27:12 10° NNE visible
02 Nov - 04:44:03 10° NNW 04:53:07 26° NNE 04:58:47 10° ENE visible
02 Nov - 07:12:47 10° WNW 07:19:52 62° SW 07:24:29 10° SE daylight
02 Nov - 14:42:33 10° S 14:47:23 13° SE 14:53:27 10° ESE daylight
02 Nov - 17:02:59 10° SW 17:16:40 54° SE 17:40:06 10° ENE daylight
02 Nov - 19:29:19 10° WSW 19:48:29 68° NW 20:14:53 10° NE visible
02 Nov - 22:04:07 10° W 22:24:56 31° NNW 22:44:43 10° NNE visible
03 Nov - 00:52:08 10° NW 01:04:39 16° N 01:14:17 10° NNE visible
03 Nov - 03:30:37 10° NNW 03:40:17 20° NNE 03:46:45 10° ENE visible
03 Nov - 06:00:01 10° NW 06:09:18 62° NNE 06:14:34 10° ESE daylight
03 Nov - 08:31:43 10° WSW 08:34:05 13° SW 08:36:14 10° S daylight
03 Nov - 15:53:21 10° SSW 16:03:59 34° SE 16:21:45 10° E daylight
03 Nov - 18:17:27 10° SW 18:33:48 89° NW 19:00:16 10° NE visible
03 Nov - 20:47:46 10° W 21:08:21 42° NNW 21:31:50 10° NE visible
03 Nov - 23:30:35 10° WNW 23:47:34 21° NNW 00:01:31 10° NNE visible
04 Nov - 02:15:26 10° NNW 02:26:12 17° N 02:33:50 10° NE visible
04 Nov - 04:47:01 10° NW 04:57:50 37° NNE 05:03:58 10° E visible
04 Nov - 07:17:13 10° WNW 07:23:48 36° SW 07:28:15 10° SSE daylight
04 Nov - 14:45:01 10° S 14:51:43 18° SE 15:01:10 10° ESE daylight
04 Nov - 17:06:41 10° SW 17:20:12 66° SE 17:44:20 10° ENE daylight
04 Nov - 19:33:49 10° WSW 19:52:29 57° NNW 20:18:14 10° NE visible
04 Nov - 22:10:28 10° WNW 22:30:06 27° NNW 22:48:37 10° NNE visible
05 Nov - 00:57:36 10° NW 01:10:36 17° N 01:20:19 10° NE visible
05 Nov - 03:33:24 10° NNW 03:45:20 27° NNE 03:52:32 10° ENE visible
05 Nov - 06:03:44 10° NW 06:13:28 85° SW 06:18:51 10° SE daylight
05 Nov - 15:56:50 10° SSW 16:07:39 42° SE 16:26:55 10° ENE daylight
05 Nov - 18:21:35 10° WSW 18:37:33 76° NW 19:03:44 10° NE visible
05 Nov - 20:53:15 10° W 21:13:01 36° NNW 21:35:21 10° NE visible
05 Nov - 23:37:21 10° NW 23:53:32 19° N 00:06:39 10° NNE visible
06 Nov - 02:18:39 10° NNW 02:31:37 22° NNE 02:40:07 10° ENE visible
06 Nov - 04:50:14 10° NW 05:02:21 54° NNE 05:08:43 10° ESE visible
06 Nov - 07:22:12 10° W 07:27:40 23° SW 07:31:38 10° S daylight
06 Nov - 14:48:01 10° S 14:55:44 23° SE 15:07:47 10° E daylight
06 Nov - 17:10:33 10° SW 17:23:48 80° SE 17:48:13 10° NE daylight
06 Nov - 19:38:39 10° W 19:56:45 47° NNW 20:21:32 10° NE visible
06 Nov - 22:17:08 10° WNW 22:35:42 24° NNW 22:52:56 10° NNE visible
07 Nov - 01:02:05 10° NW 01:16:25 20° N 01:26:39 10° NE visible
07 Nov - 03:36:20 10° NW 03:50:10 36° NNE 03:57:49 10° E visible
07 Nov - 06:07:48 10° WNW 06:17:25 56° SW 06:22:51 10° SE daylight
07 Nov - 16:00:27 10° SSW 16:11:14 54° SE 16:31:32 10° ENE daylight
07 Nov - 18:25:56 10° WSW 18:41:33 63° NW 19:07:03 10° NE visible
07 Nov - 20:59:10 10° WNW 21:18:04 30° NNW 21:39:04 10° NNE visible
07 Nov - 23:43:27 10° NW 23:59:38 20° N 00:12:25 10° NE visible
08 Nov - 02:21:42 10° NNW 02:36:48 28° NNE 02:45:57 10° ENE visible
08 Nov - 04:53:41 10° NW 05:06:37 77° NE 05:13:09 10° ESE visible
08 Nov - 07:28:04 10° WSW 07:31:32 14° SW 07:34:23 10° S daylight
08 Nov - 14:51:16 10° SSW 14:59:32 31° SE 15:13:33 10° E daylight
08 Nov - 17:14:35 10° SW 17:27:34 84° NW 17:51:48 10° NE daylight
08 Nov - 19:43:50 10° W 20:01:21 39° NNW 20:24:53 10° NE visible
08 Nov - 22:23:51 10° NW 22:41:39 22° N 22:57:49 10° NE visible
09 Nov - 01:05:55 10° NNW 01:22:02 23° NNE 01:32:54 10° ENE visible
09 Nov - 03:39:25 10° NW 03:54:46 50° NNE 04:02:42 10° ESE visible
09 Nov - 06:12:16 10° WNW 06:21:14 37° SW 06:26:34 10° SSE daylight
09 Nov - 13:43:51 10° SSE 13:48:07 14° SE 13:53:37 10° ESE daylight
09 Nov - 16:04:14 10° SW 16:14:50 68° SE 16:35:41 10° ENE daylight
09 Nov - 18:30:35 10° WSW 18:45:48 51° NNW 19:10:17 10° NE visible
09 Nov - 21:05:28 10° WNW 21:23:33 26° NNW 21:43:08 10° NE visible
09 Nov - 23:48:40 10° NW 00:05:39 21° N 00:18:37 10° NE visible
10 Nov - 02:24:43 10° NW 02:41:45 36° NNE 02:51:21 10° E visible
10 Nov - 04:57:26 10° WNW 05:10:38 76° SW 05:17:18 10° SE visible
10 Nov - 14:54:44 10° SSW 15:03:11 40° SE 15:18:39 10° ENE daylight
10 Nov - 17:18:50 10° WSW 17:31:32 69° NW 17:55:10 10° NE daylight
10 Nov - 19:49:26 10° W 20:06:18 33° NNW 20:28:23 10° NE visible
10 Nov - 22:30:13 10° NW 22:47:48 21° N 23:03:22 10° NE visible
